Language: 


Des rapports , des résumés tant et plus, au choix de chacun....


Données statistiques de la station
Quotidien Rapport Octobre 24, 2017 Unités:  Anglais    Métrique   les deux
« Précédent Jour
Suivant Jour »
Quotidien Hebdomadaire Mensuel Annuel Actuel
  Haut: Bas: Moyen:
Température: 64.4 °F 32 °F 53.4 °F
Pt de rosée: 64.4 °F 57.2 °F 60.1 °F
Humidité: 98 % 0 % 70 %
Vitesse du vent: 15.2 mph 0 mph 6 mph
Rafales: 17 mph - -
Vent:- - SW
Pression: 30.2 in 0 in -
Précipitation: 0.02 in    
Historical Graphs
 
 
Données statistiques pour Octobre 24, 2017
Heure Température Point de rosée Pression Vent Vitesse du vent Refales Humidité Pluie (taux horaire)
00:02 57.4 °F 57.2 °F 30.1 in SW 0.9 mph 6 mph 98 % 0 in
00:07 57.4 °F 57.2 °F 30.1 in SSW 4.3 mph 6.3 mph 98 % 0 in
00:12 57.4 °F 57.2 °F 30.1 in SSW 3.1 mph 6.3 mph 98 % 0 in
00:22 57.4 °F 57.2 °F 30.1 in SSW 4 mph 6 mph 98 % 0 in
00:27 57.4 °F 57.2 °F 30.1 in SW 5.4 mph 6 mph 98 % 0 in
00:33 57.4 °F 57.2 °F 30.1 in SSW 1.6 mph 6 mph 98 % 0 in
00:38 57.4 °F 57.2 °F 30.1 in SSW 5.4 mph 6 mph 98 % 0 in
00:43 57.4 °F 57.2 °F 30.1 in South 4 mph 6 mph 98 % 0 in
00:48 57.4 °F 57.2 °F 30.1 in WSW 0.9 mph 6.3 mph 98 % 0 in
00:53 57.4 °F 57.2 °F 30.1 in SSW 3.8 mph 7.4 mph 98 % 0 in
00:58 57.4 °F 57.2 °F 30.1 in SSW 4.9 mph 7.4 mph 98 % 0 in
01:03 57.4 °F 57.2 °F 30.1 in SSW 6.5 mph 6.5 mph 98 % 0 in
01:08 57.4 °F 57.2 °F 30.1 in SSW 2.7 mph 6.5 mph 98 % 0 in
01:13 57.4 °F 57.2 °F 30.1 in SSW 5.8 mph 6.5 mph 98 % 0 in
01:18 57.4 °F 57.2 °F 30.1 in WSW 4.3 mph 6 mph 98 % 0 in
01:23 57.4 °F 57.2 °F 30.1 in WSW 5.6 mph 6 mph 98 % 0 in
01:28 57.4 °F 57.2 °F 30.1 in SSW 6.5 mph 7.4 mph 98 % 0 in
01:33 57.4 °F 57.2 °F 30.1 in Calm   7.4 mph 98 % 0 in
01:38 57.4 °F 57.2 °F 30.1 in SSW 2 mph 4.9 mph 98 % 0 in
01:43 57.4 °F 57.2 °F 30.1 in SSW 3.8 mph 4.9 mph 98 % 0 in
01:48 57.4 °F 57.2 °F 30.1 in SW 4 mph 6.5 mph 98 % 0 in
01:53 57.4 °F 57.2 °F 30.1 in SW 5.6 mph 6.5 mph 98 % 0 in
01:58 57.4 °F 57.2 °F 30.1 in SSW 5.6 mph 7.6 mph 98 % 0 in
02:03 57.4 °F 57.2 °F 30.1 in SSW 4.9 mph 7.6 mph 98 % 0 in
02:09 57.4 °F 57.2 °F 30.1 in SW 6 mph 7.2 mph 98 % 0 in
02:14 57.4 °F 57.2 °F 30.1 in SSW 7.4 mph 9.2 mph 98 % 0 in
02:19 57.4 °F 57.2 °F 30.1 in SSW 6 mph 9.2 mph 98 % 0 in
02:24 57.4 °F 57.2 °F 30.1 in SSW 5.6 mph 9.2 mph 98 % 0 in
02:29 57.4 °F 57.2 °F 30.1 in SSW 5.4 mph 6.5 mph 98 % 0 in
02:34 57.4 °F 57.2 °F 30.1 in SSW 8.5 mph 8.5 mph 98 % 0 in
02:39 57.4 °F 57.2 °F 30.1 in SSW 7.2 mph 8.5 mph 98 % 0 in
02:44 57.4 °F 57.2 °F 30.1 in SW 6 mph 8.5 mph 98 % 0 in
02:49 57.4 °F 57.2 °F 30.1 in SSW 5.4 mph 7.4 mph 98 % 0 in
02:54 57.4 °F 57.2 °F 30.1 in WSW 5.8 mph 6.7 mph 98 % 0 in
02:59 57.4 °F 57.2 °F 30.1 in SW 3.1 mph 7.8 mph 98 % 0 in
03:04 32 °F 57.2 °F 30.1 in SW 6.5 mph 8.1 mph 0 % 0 in
03:09 32 °F 57.2 °F 30.1 in SW 6 mph 8.1 mph 0 % 0 in
03:14 32 °F 57.2 °F 30.1 in SSW 4.7 mph 8.5 mph 0 % 0 in
03:19 32 °F 57.2 °F 30.1 in SSW 4.3 mph 8.5 mph 0 % 0 in
03:24 32 °F 57.2 °F 30.1 in Calm   7.2 mph 0 % 0 in
03:29 32 °F 57.2 °F 30.1 in Calm   5.6 mph 0 % 0 in
03:34 32 °F 57.2 °F 30.1 in SSW 2 mph 3.8 mph 0 % 0 in
03:39 32 °F 57.2 °F 30.1 in Calm   4.3 mph 0 % 0 in
03:45 32 °F 57.2 °F 30.1 in South 2.5 mph 4.3 mph 0 % 0 in
03:50 32 °F 57.2 °F 30.1 in Calm   6.3 mph 0 % 0 in
03:55 32 °F 57.2 °F 30.1 in SSW 4.3 mph 6.3 mph 0 % 0 in
04:00 32 °F 57.2 °F 30.1 in South 3.6 mph 4.9 mph 0 % 0 in
04:10 32 °F 57.2 °F 30.1 in SSW 0.9 mph 4 mph 0 % 0 in
04:15 32 °F 57.2 °F 30.1 in South 5.8 mph 5.8 mph 0 % 0 in
04:20 32 °F 57.2 °F 30.1 in SSW 2.5 mph 5.8 mph 0 % 0 in
04:25 32 °F 57.2 °F 30.1 in Calm   3.1 mph 0 % 0 in
04:28 32 °F 57.2 °F 30.1 in SSW 3.8 mph 3.8 mph 0 % 0 in
04:34 32 °F 57.2 °F 30.1 in SSW 4.3 mph 4.3 mph 0 % 0 in
04:39 32 °F 57.2 °F 30.1 in SSW 3.8 mph 4.9 mph 0 % 0 in
04:44 32 °F 57.2 °F 30.1 in Calm   4.9 mph 0 % 0 in
04:49 32 °F 57.2 °F 30.1 in South 2.7 mph 3.8 mph 0 % 0 in
04:54 32 °F 57.2 °F 30.1 in South 2.5 mph 4 mph 0 % 0 in
04:59 32 °F 57.2 °F 30.1 in South 3.8 mph 4 mph 0 % 0 in
05:09 32 °F 57.2 °F 30.1 in SW 5.8 mph 5.8 mph 0 % 0 in
05:14 32 °F 57.2 °F 30.1 in SSW 4.9 mph 6.5 mph 0 % 0 in
05:20 32 °F 57.2 °F 30.1 in SW 4.9 mph 6.5 mph 0 % 0 in
05:25 32 °F 57.2 °F 30.1 in Calm   4.9 mph 0 % 0 in
05:26 32 °F 57.2 °F 30.1 in SSW 3.1 mph 4.9 mph 0 % 0 in
05:31 32 °F 57.2 °F 30.1 in Calm   4 mph 0 % 0 in
05:36 32 °F 57.2 °F 30.1 in Calm   4 mph 0 % 0 in
05:41 32 °F 57.2 °F 30.1 in Calm   4 mph 0 % 0 in
05:46 32 °F 57.2 °F 30.1 in South 5.8 mph 5.8 mph 0 % 0 in
05:51 32 °F 57.2 °F 30.1 in SSW 3.4 mph 5.8 mph 0 % 0 in
05:56 32 °F 57.2 °F 30.1 in SSW 1.3 mph 4.5 mph 0 % 0 in
06:02 32 °F 57.2 °F 30.1 in SSW 2.2 mph 5.6 mph 0 % 0 in
06:07 32 °F 57.2 °F 30.1 in South 5.8 mph 5.8 mph 0 % 0 in
06:12 32 °F 57.2 °F 30.1 in South 3.6 mph 5.8 mph 0 % 0 in
06:17 32 °F 57.2 °F 30.1 in SSW 7.6 mph 7.6 mph 0 % 0 in
06:22 32 °F 57.2 °F 30.1 in SSW 3.6 mph 7.6 mph 0 % 0 in
06:27 32 °F 57.2 °F 30.1 in Calm   7.4 mph 0 % 0 in
06:32 32 °F 57.2 °F 30.1 in SSW 3.4 mph 7.4 mph 0 % 0 in
06:37 32 °F 57.2 °F 30.1 in SSW 3.8 mph 8.1 mph 0 % 0 in
06:42 32 °F 57.2 °F 30.1 in SW 6.3 mph 8.1 mph 0 % 0 in
06:47 32 °F 57.2 °F 30.1 in SSW 3.6 mph 6.7 mph 0 % 0 in
06:52 32 °F 57.2 °F 30.1 in SSW 6.5 mph 6.7 mph 0 % 0 in
06:57 32 °F 57.2 °F 30.1 in SSW 3.8 mph 7.4 mph 0 % 0 in
07:02 32 °F 57.2 °F 30.1 in SSW 5.8 mph 7.4 mph 0 % 0 in
07:08 32 °F 57.2 °F 30.1 in SSW 5.6 mph 8.1 mph 0 % 0 in
07:13 32 °F 57.2 °F 30.1 in SSW 5.8 mph 8.1 mph 0 % 0 in
07:18 32 °F 57.2 °F 30.1 in Calm   8.1 mph 0 % 0 in
07:23 32 °F 57.2 °F 30.1 in SSW 5.4 mph 8.1 mph 0 % 0 in
07:28 32 °F 57.2 °F 30.1 in SSW 6 mph 6.9 mph 0 % 0 in
07:33 32 °F 57.2 °F 30.1 in SSW 6.5 mph 6.5 mph 0 % 0 in
07:38 32 °F 57.2 °F 30.1 in WSW 5.4 mph 7.8 mph 0 % 0 in
07:43 32 °F 57.2 °F 30.1 in SSW 5.6 mph 7.8 mph 0 % 0 in
07:48 32 °F 57.2 °F 30.1 in SSW 3.8 mph 7.6 mph 0 % 0 in
07:53 32 °F 57.2 °F 30.1 in SSW 5.4 mph 7.6 mph 0 % 0 in
07:58 32 °F 57.2 °F 30.1 in SSW 5.4 mph 7.6 mph 0 % 0 in
08:03 32 °F 57.2 °F 30.1 in SSW 5.4 mph 7.6 mph 0 % 0 in
08:08 32 °F 57.2 °F 30.1 in SSW 5.4 mph 7.6 mph 0 % 0 in
08:14 32 °F 57.2 °F 30.1 in SSW 5.4 mph 7.6 mph 0 % 0 in
08:19 32 °F 57.2 °F 30.1 in SSW 5.4 mph 7.6 mph 0 % 0 in
08:24 32 °F 57.2 °F 30.1 in SSW 5.4 mph 7.6 mph 0 % 0 in
08:29 32 °F 57.2 °F 30.1 in SSW 5.4 mph 7.6 mph 0 % 0 in
08:34 32 °F 57.2 °F 30.1 in SSW 5.4 mph 7.6 mph 0 % 0 in
08:39 32 °F 57.2 °F 30.1 in SSW 5.4 mph 7.6 mph 0 % 0 in
08:44 58.8 °F 59 °F 30.1 in SSW 5.4 mph 7.6 mph 98 % 0 in
12:32 32 °F 59 °F 0 in WSW 6.3 mph 6.3 mph 0 % 0 in
12:37 63.1 °F 62.6 °F 30.2 in SW 10.3 mph 10.3 mph 97 % 0 in
12:42 63.1 °F 62.6 °F 30.2 in WSW 5.4 mph 10.3 mph 97 % 0 in
12:47 63.3 °F 62.6 °F 30.1 in SW 9.8 mph 9.8 mph 97 % 0 in
12:52 63.3 °F 62.6 °F 30.1 in SW 10.7 mph 10.7 mph 97 % 0 in
12:57 63.3 °F 62.6 °F 30.1 in SW 7.2 mph 10.7 mph 97 % 0 in
13:02 63.3 °F 62.6 °F 30.1 in SSW 7.4 mph 10.3 mph 97 % 0 in
13:07 63.3 °F 62.6 °F 30.1 in WSW 7.8 mph 10.3 mph 97 % 0 in
13:12 63.5 °F 62.6 °F 30.1 in WSW 5.8 mph 11.4 mph 97 % 0 in
13:17 63.5 °F 62.6 °F 30.2 in SW 6.5 mph 11.4 mph 97 % 0 in
13:22 63.7 °F 62.6 °F 30.2 in SW 6.9 mph 10.5 mph 97 % 0 in
13:27 63.7 °F 62.6 °F 30.2 in WSW 6 mph 10.7 mph 97 % 0 in
13:32 63.7 °F 62.6 °F 30.2 in WSW 4.9 mph 10.7 mph 97 % 0 in
13:37 63.7 °F 62.6 °F 30.2 in SW 5.6 mph 8.7 mph 97 % 0 in
13:42 63.7 °F 62.6 °F 30.2 in SW 8.1 mph 8.7 mph 97 % 0 in
13:47 63.9 °F 62.6 °F 30.1 in WSW 6 mph 8.7 mph 97 % 0 in
13:53 63.9 °F 62.6 °F 30.1 in West 8.1 mph 10.3 mph 97 % 0 in
13:58 63.9 °F 62.6 °F 30.1 in WSW 5.4 mph 11 mph 97 % 0 in
14:03 63.7 °F 62.6 °F 30.2 in WSW 6.5 mph 11 mph 97 % 0 in
14:08 63.7 °F 62.6 °F 30.2 in SW 6.5 mph 9.2 mph 97 % 0 in
14:13 63.7 °F 62.6 °F 30.2 in SW 10.1 mph 10.3 mph 97 % 0 in
14:18 63.7 °F 62.6 °F 30.1 in SW 7.8 mph 12.8 mph 97 % 0 in
14:23 63.9 °F 62.6 °F 30.1 in WSW 8.5 mph 12.8 mph 97 % 0 in
14:28 63.9 °F 62.6 °F 30.1 in WSW 10.5 mph 11 mph 97 % 0 in
14:33 63.9 °F 62.6 °F 30.2 in WSW 12.8 mph 15.7 mph 97 % 0 in
14:38 63.9 °F 62.6 °F 30.2 in SSW 8.7 mph 17 mph 97 % 0 in
14:43 64 °F 62.6 °F 30.2 in WSW 7.8 mph 17 mph 97 % 0 in
14:47 64.2 °F 64.4 °F 30.1 in West 12.5 mph 17 mph 97 % 0 in
14:52 64.4 °F 64.4 °F 30.1 in WSW 7.6 mph 17 mph 96 % 0 in
14:57 64.2 °F 64.4 °F 30.1 in WSW 11.9 mph 14.5 mph 97 % 0 in
15:03 64.4 °F 64.4 °F 30.1 in West 10.3 mph 14.8 mph 96 % 0 in
15:08 64.2 °F 64.4 °F 30.1 in West 12.5 mph 14.3 mph 97 % 0 in
15:13 64.2 °F 64.4 °F 30.1 in West 11 mph 14.8 mph 96 % 0 in
15:18 64.2 °F 64.4 °F 30.2 in WSW 15.2 mph 17 mph 96 % 0 in
15:23 64.2 °F 64.4 °F 30.2 in WSW 8.1 mph 17 mph 96 % 0 in
15:28 64.2 °F 64.4 °F 30.2 in WSW 9.8 mph 16.1 mph 96 % 0 in
15:33 64 °F 62.6 °F 30.2 in WSW 10.7 mph 13.2 mph 96 % 0 in
15:38 64 °F 62.6 °F 30.2 in WSW 7.2 mph 12.5 mph 96 % 0 in
15:43 64 °F 62.6 °F 30.2 in WSW 7.2 mph 12.1 mph 96 % 0 in
15:48 64 °F 62.6 °F 30.1 in WSW 10.1 mph 12.8 mph 96 % 0 in
15:53 64 °F 62.6 °F 30.1 in WSW 7.8 mph 12.8 mph 96 % 0 in
15:58 64 °F 62.6 °F 30.1 in WSW 10.1 mph 15.4 mph 96 % 0 in
16:03 64 °F 62.6 °F 30.1 in WSW 8.7 mph 15.4 mph 96 % 0 in
16:08 64 °F 62.6 °F 30.1 in WSW 8.5 mph 13.6 mph 96 % 0 in
16:13 63.9 °F 62.6 °F 30.1 in West 15.2 mph 15.2 mph 96 % 0 in
16:19 63.7 °F 62.6 °F 30.1 in WSW 12.3 mph 15.2 mph 96 % 0 in
16:24 63.5 °F 62.6 °F 30.1 in WSW 10.3 mph 13.2 mph 96 % 0 in
16:29 63.5 °F 62.6 °F 30.1 in WSW 13.2 mph 13.2 mph 96 % 0 in
16:34 63.3 °F 62.6 °F 30.1 in West 9.6 mph 14.1 mph 96 % 0 in
16:39 63.1 °F 62.6 °F 30.1 in WSW 10.5 mph 14.1 mph 96 % 0 in
16:44 63.1 °F 62.6 °F 30.1 in SW 10.3 mph 15.7 mph 96 % 0 in
16:49 63 °F 62.6 °F 30.1 in WSW 10.5 mph 15.7 mph 96 % 0 in
16:54 63 °F 62.6 °F 30.1 in WSW 11.4 mph 12.5 mph 96 % 0 in
16:59 63 °F 62.6 °F 30.1 in WSW 13.2 mph 13.2 mph 96 % 0 in
17:04 62.8 °F 62.6 °F 30.1 in WSW 9.8 mph 13.9 mph 97 % 0 in
17:09 62.8 °F 62.6 °F 30.1 in WSW 7.8 mph 13.9 mph 97 % 0 in
17:14 62.8 °F 62.6 °F 30.1 in SW 10.1 mph 13.2 mph 97 % 0 in
17:19 62.8 °F 62.6 °F 30.2 in WSW 9.8 mph 13.2 mph 97 % 0 in
17:24 62.8 °F 62.6 °F 30.2 in WSW 7.8 mph 11 mph 97 % 0 in
17:29 62.8 °F 62.6 °F 30.2 in WSW 9.8 mph 14.5 mph 97 % 0 in
17:34 62.8 °F 62.6 °F 30.2 in WSW 10.1 mph 14.5 mph 97 % 0 in
17:39 62.8 °F 62.6 °F 30.2 in WSW 10.3 mph 12.8 mph 97 % 0 in
17:44 62.8 °F 62.6 °F 30.2 in WSW 8.7 mph 13 mph 97 % 0 in
17:49 62.8 °F 62.6 °F 30.2 in WSW 9.4 mph 13 mph 97 % 0 in
17:54 62.8 °F 62.6 °F 30.2 in WSW 11 mph 14.5 mph 97 % 0 in
17:59 62.8 °F 62.6 °F 30.2 in WSW 7.6 mph 14.5 mph 97 % 0 in
18:04 62.8 °F 62.6 °F 30.2 in WSW 7.8 mph 13.2 mph 97 % 0 in
18:09 62.8 °F 62.6 °F 30.2 in SW 8.5 mph 13.2 mph 96 % 0 in
18:14 62.8 °F 62.6 °F 30.2 in WSW 8.7 mph 10.7 mph 96 % 0 in
18:19 62.8 °F 62.6 °F 30.2 in WSW 5.8 mph 10.3 mph 96 % 0 in
18:24 62.6 °F 62.6 °F 30.2 in SW 7.8 mph 11 mph 96 % 0 in
18:29 62.6 °F 62.6 °F 30.2 in WSW 5.8 mph 11 mph 96 % 0 in
18:34 62.6 °F 62.6 °F 30.2 in WSW 5.8 mph 10.1 mph 96 % 0 in
18:39 62.6 °F 62.6 °F 30.2 in WSW 6 mph 13.4 mph 96 % 0 in
18:44 62.6 °F 62.6 °F 30.2 in SW 7.4 mph 13.4 mph 96 % 0 in
18:49 62.6 °F 62.6 °F 30.2 in WSW 8.7 mph 11 mph 96 % 0 in
18:54 62.6 °F 62.6 °F 30.2 in WSW 8.5 mph 11 mph 96 % 0 in
18:59 62.6 °F 62.6 °F 30.2 in WSW 10.1 mph 10.1 mph 96 % 0 in
19:04 62.6 °F 62.6 °F 30.2 in WSW 10.7 mph 10.7 mph 96 % 0 in
19:10 62.6 °F 62.6 °F 30.2 in WSW 7.8 mph 10.7 mph 96 % 0 in
19:15 62.6 °F 62.6 °F 30.2 in WSW 10.5 mph 10.5 mph 96 % 0 in
19:20 62.6 °F 62.6 °F 30.2 in WSW 7.8 mph 10.5 mph 96 % 0 in
19:25 62.6 °F 62.6 °F 30.2 in WSW 9.6 mph 11 mph 96 % 0 in
19:30 62.4 °F 62.6 °F 30.2 in WSW 8.1 mph 11 mph 96 % 0 in
19:35 62.4 °F 62.6 °F 30.2 in WSW 8.7 mph 13.2 mph 96 % 0 in
19:40 62.4 °F 62.6 °F 30.2 in WSW 7.6 mph 13.2 mph 96 % 0 in
19:45 62.4 °F 62.6 °F 30.2 in WSW 10.3 mph 10.3 mph 96 % 0 in
19:50 62.4 °F 62.6 °F 30.2 in WSW 9.2 mph 12.1 mph 96 % 0 in
19:52 62.4 °F 62.6 °F 30.2 in WSW 6.9 mph 12.1 mph 96 % 0 in
19:58 62.4 °F 62.6 °F 30.2 in WSW 8.1 mph 12.1 mph 96 % 0 in
20:03 62.4 °F 62.6 °F 30.2 in WSW 8.1 mph 10.1 mph 96 % 0 in
20:08 62.4 °F 62.6 °F 30.2 in WSW 6.9 mph 10.7 mph 96 % 0 in
20:13 62.4 °F 62.6 °F 30.2 in WSW 8.1 mph 10.7 mph 96 % 0 in
20:18 62.2 °F 60.8 °F 30.2 in SW 7.4 mph 10.3 mph 96 % 0 in
20:23 62.2 °F 60.8 °F 30.2 in WSW 5.6 mph 10.3 mph 96 % 0 in
20:28 62.2 °F 60.8 °F 30.2 in WSW 6.7 mph 9.4 mph 96 % 0 in
20:33 62.2 °F 60.8 °F 30.2 in WSW 5.4 mph 8.9 mph 96 % 0 in
20:38 62.2 °F 60.8 °F 30.2 in WSW 6.3 mph 7.8 mph 96 % 0 in
20:43 62.2 °F 60.8 °F 30.2 in WSW 5.6 mph 7.8 mph 96 % 0 in
20:48 62.1 °F 60.8 °F 30.2 in SW 5.4 mph 7.2 mph 96 % 0 in
20:53 62.1 °F 60.8 °F 30.2 in WSW 6.3 mph 7.4 mph 96 % 0 in
20:58 62.1 °F 60.8 °F 30.2 in West 5.8 mph 9.4 mph 96 % 0 in
21:03 62.1 °F 60.8 °F 30.2 in SW 4.9 mph 9.4 mph 96 % 0 in
21:08 62.1 °F 60.8 °F 30.2 in WSW 5.6 mph 8.9 mph 96 % 0 in
21:13 62.1 °F 60.8 °F 30.2 in WSW 6.5 mph 11 mph 96 % 0 in
21:18 62.1 °F 60.8 °F 30.2 in WSW 6.5 mph 11 mph 96 % 0 in
21:23 62.1 °F 60.8 °F 30.2 in WSW 5.8 mph 9.6 mph 96 % 0 in
21:28 62.1 °F 60.8 °F 30.2 in WSW 9.8 mph 10.1 mph 96 % 0 in
21:33 62.1 °F 60.8 °F 30.2 in WSW 6 mph 10.1 mph 96 % 0 in
21:38 61.9 °F 60.8 °F 30.2 in WSW 5.4 mph 9.8 mph 96 % 0 in
21:43 61.9 °F 60.8 °F 30.2 in WSW 6 mph 9.8 mph 96 % 0 in
21:48 61.7 °F 60.8 °F 30.2 in Calm   8.1 mph 96 % 0 in
21:53 61.3 °F 60.8 °F 30.2 in SW 3.6 mph 6 mph 96 % 0 in
21:58 61.3 °F 60.8 °F 30.2 in SW 3.4 mph 5.8 mph 96 % 0 in
22:03 61.3 °F 60.8 °F 30.2 in Calm   5.8 mph 96 % 0 in
22:08 61.3 °F 60.8 °F 30.2 in Calm   4.9 mph 97 % 0 in
22:13 61.3 °F 60.8 °F 30.2 in Calm   6.3 mph 97 % 0 in
22:18 61.3 °F 60.8 °F 30.1 in SSW 3.8 mph 6.3 mph 97 % 0 in
22:24 61.3 °F 60.8 °F 30.1 in SSW 5.6 mph 6.5 mph 97 % 0 in
22:29 61.3 °F 60.8 °F 30.1 in SW 2.5 mph 6.5 mph 97 % 0 in
22:34 61.3 °F 60.8 °F 30.2 in SSW 5.4 mph 5.6 mph 97 % 0 in
22:39 61.5 °F 60.8 °F 30.2 in SSW 6.5 mph 7.2 mph 97 % 0 in
22:44 61.5 °F 60.8 °F 30.2 in SW 4.9 mph 7.6 mph 97 % 0 in
22:49 61.7 °F 60.8 °F 30.1 in SW 4.3 mph 8.1 mph 97 % 0 in
22:54 61.7 °F 60.8 °F 30.1 in SW 5.8 mph 8.1 mph 97 % 0 in
22:59 61.7 °F 60.8 °F 30.1 in SSW 6 mph 7.2 mph 97 % 0 in
23:04 61.7 °F 60.8 °F 30.1 in WSW 5.6 mph 6.3 mph 97 % 0 in
23:09 61.7 °F 60.8 °F 30.1 in SW 6.5 mph 7.6 mph 97 % 0 in
23:14 61.7 °F 60.8 °F 30.1 in SW 5.6 mph 7.6 mph 97 % 0 in
23:19 61.7 °F 60.8 °F 30.1 in SW 5.8 mph 7.4 mph 97 % 0 in
23:24 61.7 °F 60.8 °F 30.1 in SSW 5.4 mph 7.2 mph 97 % 0 in
23:29 61.7 °F 60.8 °F 30.1 in SSW 7.4 mph 7.4 mph 97 % 0 in
23:34 61.9 °F 60.8 °F 30.2 in Calm   7.4 mph 97 % 0 in
23:39 61.9 °F 60.8 °F 30.2 in SSW 4 mph 7.4 mph 97 % 0 in
23:44 61.7 °F 60.8 °F 30.2 in SSW 2.9 mph 6.3 mph 97 % 0 in
23:49 61.7 °F 60.8 °F 30.1 in SW 3.6 mph 6.5 mph 97 % 0 in
23:54 61.7 °F 60.8 °F 30.1 in SW 0.9 mph 6.5 mph 97 % 0 in
23:59 61.7 °F 60.8 °F 30.1 in WSW 2.5 mph 6 mph 97 % 0 in
Le Gheer Warneton
Courtoisie de Weather Underground - 2 mb

Mise a jour : 17-12-17 03:27:12
Généré par Cumulus 1.9.4 (1099)